Simultaneous Nadir Overpasses (SNOs) Predictions

Prediction of SNOs between METOP-A and TERRA Satellite Orbit:

Table of predicted SNOs for the next 14.0 days since TLE Epoch: 8/22/2015
Index Date (METOP-A) Time (METOP-A) Lat,Lon (METOP-A) SZA (METOP-A ) Date (TERRA) Time (TERRA) Lat,Lon (TERRA) SZA (TERRA ) Distance(km) Time Diff (sec)
1 08/23/2015 07:49:07 81.35, 110.90 72.70 08/23/2015 07:49:44 81.35, 110.75 72.70 2.63 37
2 08/23/2015 08:39:47 -81.36, -81.35 107.24 08/23/2015 08:39:10 -81.36, -81.31 107.25 1.02 37
3 08/26/2015 03:23:28 81.36, 177.44 73.70 08/26/2015 03:23:56 81.36, 177.50 73.72 1.46 28
4 08/26/2015 04:14:08 -81.36, -14.81 106.24 08/26/2015 04:13:23 -81.36, -14.92 106.28 1.86 45
5 08/28/2015 22:57:48 81.36,-116.05 74.71 08/28/2015 22:58:08 81.36,-116.21 74.70 2.64 20
6 08/28/2015 23:48:29 -81.36, 51.32 105.27 08/28/2015 23:47:35 -81.35, 51.39 105.29 1.19 54
7 08/31/2015 18:32:09 81.36, -49.57 75.75 08/31/2015 18:32:20 81.36, -49.62 75.75 1.13 11
8 08/31/2015 19:22:50 -81.36, 117.82 104.24 08/31/2015 19:21:47 -81.36, 118.00 104.25 3.00 63
9 09/03/2015 14:06:31 81.35, 16.50 76.75 09/03/2015 14:06:33 81.35, 16.50 76.74 0.89 2




NCC Satellite Simultaneous Nadir Overpasses (SNOs) Prediction Service
